Regional Weather Roundup
Issued by NWS Albany, NY

Home | Current Version | Previous Version | Graphics & Text | Print | Product List | Glossary Off
Versions: 1 2 3 4 5 6 7 8 9 10 11 12 13 14 15 16 17 18 19 20 21 22 23 24 25 26 27

000
ASUS41 KALY 281810
RWRALY

NEW YORK STATE HOURLY WEATHER ROUNDUP
NATIONAL WEATHER SERVICE ALBANY NY
200 PM EDT THU APR 28 2016

NOTE: "FAIR" INDICATES FEW OR NO CLOUDS BELOW 12,000 FEET WITH NO
SIGNIFICANT WEATHER AND/OR NO OBSTRUCTIONS TO VISIBILITY.

NYZ032-033-038>043-046>054-057>066-NYZ062>081-082-084-281900-
EAST


CITY           SKY/WX    TMP DP  RH WIND       PRES   REMARKS
ALBANY         CLOUDY    55  20  25 NE7       30.03F
GLENS FALLS    SUNNY     54  23  30 E10       30.03F
POUGHKEEPSIE   PTSUNNY   59  20  22 VRB5      30.01F
NEWBURGH       PTSUNNY   55  25  30 SE9       30.02F
MONTGOMERY     CLOUDY    58  25  28 VRB5      30.00F
WHITE PLAINS   CLOUDY    54  24  31 SE6       30.02F
ISLIP          CLOUDY    52  35  52 SE13      30.05S
NEW YORK CITY  CLOUDY    56  34  43 SE8       30.03F
CENTRAL PARK   CLOUDY    56  31  38 VRB7      30.06F
$$

NYZ005>009-017-018-044>046-055-056-281900-
CENTRAL


CITY           SKY/WX    TMP DP  RH WIND       PRES   REMARKS
FULTON         SUNNY     55  25  31 NW7       30.06F
SYRACUSE       CLOUDY    52  19  27 VRB3      30.04F
ROME           MOSUNNY   55  22  27 W9        30.04F
ELMIRA         CLOUDY    54  20  26 CALM      30.01F
BINGHAMTON     PTSUNNY   50  18  28 CALM      30.00F
MONTICELLO     CLOUDY    55  18  22 N5        30.01F
$$

NYZ026>034-041>043-087-281900-
NORTH


CITY           SKY/WX    TMP DP  RH WIND       PRES   REMARKS
WATERTOWN      SUNNY     50  24  36 E15       30.08F
FORT DRUM      NOT AVBL
MASSENA        SUNNY     45  16  31 NE10G16   30.12F
SARANAC LAKE   SUNNY     45  14  28 N5        30.01F
PLATTSBURGH    SUNNY     42  20  41 NE9       30.12F
$$

NYZ001>004-010>016-019>021-085-281900-
WEST


CITY           SKY/WX    TMP DP  RH WIND       PRES   REMARKS
NIAGARA FALLS  CLOUDY    50  30  46 NE14      30.02F
BUFFALO        CLOUDY    50  23  34 E12       30.01F
DUNKIRK        CLOUDY    52  32  46 N15       29.98S
JAMESTOWN      CLOUDY    48  21  34 E7        29.96F
WELLSVILLE     CLOUDY    48  21  34 SE10      30.00F
ROCHESTER      CLOUDY    51  21  30 E12       30.06F
PENN YAN       CLOUDY    51  23  33 VRB7      30.04F
$$

             KEY
       WCI = WIND CHILL INDEX
       VSB = VISIBILITY
       HX  = HEAT INDEX
$$




USA.gov is the U.S. government's official web portal to all federal, state and local government web resources and services.